SCP
0 0 0 0 0 0 0 0 0 0 0 0 0 0 0 0 0 0 0 0 0 0 0 0 0 0 0 0 0 0 0 0 0 0 0 0 0 0 0 0 0 0 0 0 0 0 0 0 0
0 0 0 0 0 0 0 0 0 0 0 0 0 0 0 0 0 0 0 0 0 0 0 0 0 0 0 0 0 0 0 0 0 0 0 0 0 0 0 0 0 0 0 0 0 0 0 0 0
0 0 0 0 0 0 0 0 0 0 0 0 0 0 0 0 0 0 0 0 0 0 0 0 0 0 0 0 0 0 0 0 0 0 0 0 0 0 0 0 0 0 0 0 0 0 0 0 0
-0 0 0 0 0 0 0 0 0 0 0 0 0 0 0 0 0 0 0 0 0 0 0 0 0 0 0 0 0 0 0 0 0 0 0 0 0 0 0 0 0 0 0 0 0 0 0 0 0
-0 0 0 0 0 0 0 0 0 0 0 0 0 0 0 0 0 0 0 0 0 0 0 0 0 0 0 0 0 0 0 0 0 0 0 0 0 0 0 0 0 0 0 0 0 0 0 0 0
0 0 0 0 0 0 0 0 0 0 0 0 0 0 0 0 0 0 0 0 0 0 0 0 0 1 0 0 0 0 0 0 0 0 0 0 0 0 0 0 0 0 0 0 0 0 0 0 0
0 0 0 0 0 0 0 0 0 0 0 0 0 0 0 0 0 0 0 0 0 0 0 0 0 0 0 0 0 0 0 0 0 0 0 0 0 0 0 0 0 0 0 0 0 0 0 0 0
0 0 0 0 0 0 0 0 0 0 0 0 0 0 0 0 0 0 1 1 0 0 0 0 0 0 0 0 0 0 0 0 0 0 0 0 0 0 0 0 0 0 0 0 0 0 0 0 0
0 0 0 0 0 0 0 0 0 0 0 0 0 0 0 0 0 1 1 1 1 0 0 0 0 0 0 0 0 0 0 0 0 0 0 0 0 0 0 0 0 0 0 0 0 0 0 0 0
0 0 0 0 0 0 0 0 0 0 0 0 0 0 0 0 1 1 1 1 1 0 0 0 0 0 0 0 0 0 0 0 0 0 0 0 0 0 0 0 0 0 0 0 0 0 0 0 0
0 0 0 0 0 0 0 0 0 0 0 0 0 0 0 0 1 1 1 1 1 1 0 0 0 0 0 0 0 0 0 0 0 0 0 0 0 0 0 0 0 0 0 0 0 0 0 0 0
0 0 0 0 0 0 0 0 0 0 0 0 0 0 0 0 1 1 1 1 1 1 1 0 0 0 0 0 0 0 0 0 0 0 0 0 0 0 0 0 0 0 0 0 0 0 0 0 0
0 0 0 0 0 0 0 0 0 0 0 0 0 0 0 1 1 1 1 1 1 1 1 1 1 1 0 0 0 0 0 0 0 0 0 0 0 0 0 0 0 0 0 0 0 0 0 0 0
0 0 0 0 0 0 0 0 0 0 0 0 0 1 1 1 1 1 1 1 1 1 1 1 1 1 1 1 0 0 0 0 0 0 0 0 0 0 0 0 0 0 0 0 0 0 0 0 0
0 0 0 0 0 0 0 0 0 0 0 0 1 1 1 1 1 1 1 1 1 1 1 1 1 1 1 1 0 0 0 0 0 0 0 0 0 0 0 0 0 0 0 0 0 0 0 0 0
0 0 0 0 0 0 0 0 0 0 0 0 1 1 1 1 1 1 1 1 1 1 1 1 1 1 1 1 0 0 0 0 0 0 0 0 0 0 0 0 0 0 0 0 0 0 0 0 0
0 0 0 0 0 0 0 0 0 0 0 0 0 1 1 0 0 1 1 1 1 1 1 1 1 1 1 1 1 0 0 0 0 0 0 0 0 0 0 0 0 0 0 0 0 0 0 0 0
0 0 0 0 0 0 0 0 0 0 0 0 0 0 0 0 0 1 1 1 1 1 1 1 1 1 1 1 1 1 0 0 0 0 0 0 0 0 0 0 0 0 0 0 0 0 0 0 0
0 0 0 0 0 0 0 0 0 0 0 0 0 0 0 1 1 1 1 1 1 1 1 1 1 1 1 1 1 1 1 1 0 0 0 0 0 0 0 0 0 0 0 0 0 0 0 0 0
0 0 0 0 0 0 0 0 0 0 0 0 0 0 1 1 1 1 1 1 1 1 1 1 1 1 1 1 1 1 1 1 1 0 0 0 0 0 0 0 0 0 0 0 0 0 0 0 0
0 0 0 0 0 0 0 0 0 0 0 0 0 0 1 1 1 1 1 1 1 1 1 1 1 1 1 1 1 1 1 1 1 0 0 0 0 0 0 0 0 0 0 0 0 0 0 0 0
0 0 0 0 0 0 0 0 0 0 0 0 0 0 1 1 1 1 1 1 1 1 1 1 1 1 1 1 1 1 1 1 1 1 0 0 0 0 0 0 0 0 0 0 0 0 0 0 0
0 0 0 0 0 0 0 0 0 0 0 0 0 0 0 1 1 1 1 1 1 1 1 1 1 1 1 1 1 1 1 1 1 1 1 0 0 0 0 0 0 0 0 0 0 0 0 0 0
0 0 0 0 0 0 0 0 0 0 0 0 0 0 0 1 1 1 1 1 1 1 1 1 1 1 1 1 1 1 1 1 1 1 1 1 0 0 0 0 0 0 0 0 0 0 0 0 0
0 0 0 0 0 0 0 0 0 0 0 0 0 0 0 0 1 1 1 1 1 1 1 1 1 1 1 1 1 1 1 1 1 1 1 1 1 0 0 0 0 0 0 0 0 0 0 0 0
0 0 0 0 0 0 0 0 0 0 0 0 0 0 1 1 1 0 0 0 0 1 1 1 1 1 1 1 1 1 1 1 1 1 1 1 1 0 0 0 0 0 0 0 0 0 0 0 0
0 0 0 0 0 0 0 0 0 0 0 0 0 0 1 1 1 0 0 0 0 1 1 1 1 1 1 1 1 1 1 1 1 1 1 1 0 0 0 0 0 0 0 0 0 0 0 0 0
0 0 0 0 0 0 0 0 0 0 0 0 0 0 1 1 1 0 0 0 0 0 1 1 1 1 1 1 1 1 1 1 1 1 1 0 0 0 0 0 0 0 0 0 0 0 0 0 0
0 0 0 0 0 0 0 0 0 0 0 0 0 0 0 0 1 1 0 0 0 0 1 1 1 1 1 1 1 1 1 1 0 0 0 0 0 0 0 0 0 0 0 0 0 0 0 0 0
0 0 0 0 0 0 0 0 0 0 0 0 0 0 0 0 0 1 1 0 0 0 1 1 1 1 1 1 1 1 1 0 0 0 0 0 0 0 0 0 0 0 0 0 0 0 0 0 0
Wind_Speed
2 2 1 2 5 5 1 3 1 3 3 4 6 8 7 6 5 6 3 12 13 12 9 12 14 14 13 13 12 12 12 12 12 12 12 12 12 12 12 13 13 14 14 14 13 13 13 13 13
1 1 3 4 5 2 3 2 2 4 7 7 8 9 8 7 7 10 7 11 14 12 9 11 15 14 13 13 12 12 12 12 12 12 12 12 12 12 12 12 13 13 13 13 13 13 12 12 12
2 1 3 4 2 3 3 2 3 4 6 6 5 5 6 6 8 8 10 15 13 11 8 11 16 14 13 12 12 12 12 12 12 12 12 12 11 11 11 12 12 12 12 12 12 11 11 10 10
1 3 4 3 2 5 5 4 4 5 4 5 6 5 4 5 7 10 16 16 14 10 8 11 16 15 13 12 11 11 11 11 11 11 11 11 11 11 11 11 11 11 11 11 10 10 9 9 9
3 4 4 2 4 5 4 5 5 6 4 6 8 6 4 3 13 18 17 15 14 10 8 9 14 14 13 12 11 11 11 10 10 10 10 10 10 10 10 10 10 10 10 9 9 9 8 8 8
3 4 3 2 5 4 2 5 7 9 8 7 8 7 2 7 14 16 16 13 13 12 9 9 14 14 13 12 11 10 10 10 10 9 9 9 9 9 9 9 9 9 9 8 8 7 7 7 7
4 3 2 4 3 3 2 3 7 8 8 6 7 7 4 6 10 13 13 12 11 11 9 7 8 10 12 12 11 10 10 10 9 9 9 8 8 8 9 9 9 9 8 8 7 6 6 6 6
5 3 2 2 2 3 1 1 4 6 5 5 6 8 7 9 9 11 11 11 10 9 8 8 7 6 6 7 11 11 10 10 9 9 8 8 8 8 9 8 8 8 8 7 6 6 5 5 5
3 3 3 4 3 3 1 3 1 3 6 3 3 6 10 13 13 13 11 8 8 8 6 7 7 6 6 6 8 9 9 9 8 7 8 6 3 3 4 6 8 8 7 6 6 5 4 4 4
4 3 7 5 4 3 1 4 3 4 5 4 5 7 12 14 14 14 13 11 10 10 8 7 8 7 6 6 5 3 4 4 4 3 3 2 2 2 4 6 8 7 7 6 5 5 4 3 2
3 6 6 5 4 2 2 1 3 7 3 6 11 14 13 12 12 13 12 12 11 10 9 7 7 7 6 4 4 3 2 2 3 3 3 3 2 1 2 2 3 3 4 2 2 2 1 1 1
3 7 6 5 4 1 3 2 2 5 7 9 13 14 12 11 10 11 11 11 9 10 9 8 8 7 6 5 4 4 3 2 3 3 4 3 2 2 2 2 2 1 1 2 1 1 1 1 2
5 7 7 5 3 2 2 3 3 4 7 10 11 11 11 10 8 7 9 10 10 9 8 9 8 7 6 5 4 4 3 3 3 3 3 3 2 2 2 2 2 2 1 2 2 1 1 2 2
5 5 5 4 3 2 1 0 2 4 8 9 9 8 8 9 10 8 8 8 8 8 8 8 8 7 6 5 4 4 4 3 3 3 3 4 2 2 2 2 2 2 2 2 2 2 2 2 2
3 4 6 4 2 2 2 2 2 5 8 9 9 8 7 6 8 9 9 9 9 9 8 7 8 7 6 5 5 4 4 4 3 3 4 4 3 3 2 2 2 2 2 2 2 2 2 2 2
6 4 4 7 2 3 4 4 6 5 8 8 8 8 7 6 7 8 9 8 9 9 7 7 7 7 6 5 5 4 4 4 3 3 3 4 4 4 3 2 2 2 2 2 2 2 2 2 2
4 2 5 8 4 2 4 4 5 5 9 8 7 7 7 6 5 6 8 9 9 9 8 7 6 7 6 5 4 4 3 3 3 3 3 3 3 4 3 3 2 2 2 2 2 2 2 2 2
5 4 5 6 5 1 2 4 4 4 8 8 7 6 6 6 6 7 7 8 8 7 8 8 7 7 6 4 3 2 3 2 2 3 3 4 3 4 3 2 2 3 2 2 2 2 1 2 2
6 5 7 9 6 0 2 3 3 3 4 5 5 5 5 5 5 6 7 7 6 5 6 6 7 6 5 4 4 3 3 2 2 2 3 4 3 4 4 3 3 3 3 3 3 2 2 1 1
7 7 9 8 5 1 2 2 1 1 4 7 8 7 5 4 4 6 6 6 6 6 6 5 6 6 6 4 4 3 3 2 2 2 2 3 4 4 4 4 3 3 3 3 2 3 2 1 1
8 7 8 6 3 3 1 4 3 3 1 1 4 7 7 8 8 7 6 6 6 6 6 6 5 5 5 5 3 3 2 1 1 1 2 2 3 4 4 4 4 3 4 3 3 3 3 2 1
8 9 7 5 1 3 1 2 6 2 1 1 1 2 4 5 7 7 6 6 6 6 5 5 4 4 5 5 5 5 4 3 3 3 2 2 3 4 4 4 4 4 3 4 4 3 3 3 2
8 8 5 4 2 1 1 2 5 1 1 2 1 3 3 5 6 7 6 5 4 4 4 4 4 4 4 5 5 5 4 3 2 2 3 2 2 3 4 4 4 3 3 3 3 3 3 3 3
3 2 5 4 4 2 4 4 4 3 5 3 2 3 3 4 5 6 5 5 4 3 3 4 4 4 4 5 5 5 5 4 4 3 4 3 2 2 3 3 3 3 3 3 3 3 3 3 3
2 5 4 5 3 5 3 3 5 5 5 7 6 4 4 5 5 5 6 5 5 4 3 3 4 3 3 4 4 4 5 5 5 4 4 3 2 2 3 3 3 3 3 3 3 3 3 3 3
2 7 7 5 5 5 2 2 4 3 3 4 6 5 4 5 5 6 6 5 4 5 4 4 4 3 3 4 3 3 4 4 3 3 3 4 3 3 3 4 4 3 3 3 3 2 3 2 2
1 2 7 7 2 1 3 2 3 2 0 3 5 5 4 5 5 5 5 5 4 4 5 6 5 3 3 4 3 3 3 4 4 3 3 2 2 3 3 4 4 4 4 4 3 3 3 2 2
3 3 5 5 3 2 3 3 4 3 3 2 3 4 4 4 4 4 4 4 4 4 4 5 5 5 4 4 4 3 3 3 3 3 3 3 3 3 3 3 3 3 3 4 3 2 2 2 2
3 2 3 3 4 5 3 5 4 6 5 3 2 2 3 4 4 3 4 3 3 3 3 3 4 3 3 4 3 3 2 2 3 3 3 4 3 4 3 3 4 4 3 3 3 3 3 3 3
3 2 4 3 2 3 4 6 3 3 3 4 3 2 3 4 4 4 4 3 3 3 3 2 3 3 3 4 3 3 3 3 2 3 3 3 3 3 4 3 4 4 3 4 4 4 3 4 4
Wind_Direction
229 218 133 67 52 49 338 260 184 92 65 51 70 82 84 74 110 136 146 138 139 143 143 137 130 126 123 119 116 114 111 108 105 104 103 104 102 100 100 101 103 105 107 109 111 111 111 109 108
219 178 60 55 74 51 286 231 123 117 133 109 80 85 78 71 90 115 126 143 142 141 142 140 135 130 126 125 124 121 118 114 111 109 108 107 106 105 106 107 108 108 108 109 109 110 112 111 111
251 146 81 68 103 184 221 206 140 128 127 106 92 73 85 115 120 136 149 146 139 139 143 144 137 134 131 130 129 127 125 121 117 115 113 112 111 110 110 111 113 114 114 113 114 115 113 113 114
75 47 51 63 237 233 207 216 159 124 96 87 96 67 76 124 137 140 142 143 138 140 143 146 140 138 137 135 133 131 129 126 124 121 119 118 118 117 117 119 120 119 117 117 118 118 118 120 121
68 73 49 345 270 254 234 189 155 125 108 93 97 97 71 81 122 135 143 143 140 141 140 143 141 140 140 140 137 135 133 131 130 128 126 124 123 124 125 127 127 125 123 122 121 121 122 121 119
57 67 72 277 277 279 238 155 130 107 114 115 108 109 109 137 134 143 145 144 143 143 142 144 145 143 142 142 141 139 137 135 134 134 132 129 128 130 132 134 133 131 130 130 128 128 127 125 122
124 111 202 228 259 275 241 149 129 131 138 152 135 113 138 155 148 144 142 140 140 140 142 145 149 147 148 146 145 143 141 140 138 136 137 138 139 139 141 142 142 140 141 140 138 136 132 126 123
150 114 278 259 233 259 271 105 133 138 143 141 132 135 162 174 149 136 134 135 138 141 147 150 149 148 151 152 153 151 148 145 142 141 142 144 147 150 152 152 154 152 152 150 146 142 135 127 126
116 86 250 237 212 237 172 90 70 88 111 116 110 141 157 149 137 129 127 129 139 147 156 157 155 155 156 158 160 156 153 151 147 146 146 143 144 155 159 163 162 162 162 160 157 153 142 131 127
113 170 235 223 210 207 175 130 147 99 102 93 89 114 135 139 140 141 147 151 156 162 170 169 161 159 159 163 151 154 154 154 150 146 147 148 147 156 155 166 169 167 167 168 167 160 145 122 107
179 215 249 266 250 188 155 129 134 129 153 165 154 151 150 146 150 152 156 160 164 165 168 171 164 162 160 152 151 158 156 155 157 152 149 149 144 151 150 152 170 168 167 165 168 160 142 132 132
259 262 254 260 257 190 169 162 140 158 182 172 161 156 150 153 160 160 158 162 156 159 167 168 162 160 161 153 158 158 156 158 161 166 160 155 153 161 164 161 166 167 158 155 155 152 163 153 152
266 267 272 261 260 217 155 154 153 180 162 153 148 146 151 152 153 152 153 149 151 160 165 166 160 159 160 155 161 156 161 161 165 163 170 158 155 173 175 171 165 164 157 159 160 169 170 157 149
257 272 280 278 271 281 168 178 114 199 154 146 142 146 152 155 147 137 137 140 149 161 168 161 159 159 153 152 153 154 161 157 151 157 161 158 150 158 162 163 165 170 172 168 168 169 157 149 144
303 318 317 282 244 253 88 9 232 194 151 149 147 148 144 149 143 142 149 147 156 160 161 159 159 153 146 144 148 147 157 152 153 163 161 163 155 155 154 157 165 174 164 152 149 133 123 133 134
355 353 311 290 261 247 119 232 253 177 147 154 159 159 155 153 149 147 148 147 152 153 153 158 156 149 146 143 144 146 152 153 159 159 160 165 159 151 145 156 177 162 142 143 141 129 118 123 126
356 290 272 290 276 191 143 210 245 178 156 165 168 167 164 158 153 151 151 151 153 156 155 155 154 153 151 147 143 143 145 152 160 157 158 161 153 155 154 161 171 153 136 139 150 132 140 136 133
247 262 276 271 277 135 163 213 236 194 163 172 169 162 164 165 173 161 152 150 152 151 156 158 155 156 150 142 129 125 129 146 153 158 167 167 164 161 152 149 157 149 136 136 131 132 127 136 143
232 260 272 272 269 228 213 226 234 197 166 169 169 157 163 177 175 149 148 141 132 134 146 155 153 158 154 155 155 157 167 168 169 177 177 176 171 162 154 153 153 151 155 160 154 132 121 104 100
245 260 272 286 278 196 196 250 298 209 188 180 170 170 164 160 147 146 146 139 142 143 146 152 159 162 163 168 170 166 161 172 175 176 182 182 171 167 163 160 162 159 150 145 147 127 127 133 126
254 240 245 246 305 341 68 340 323 317 347 168 165 169 167 161 154 153 148 148 147 154 160 158 164 164 164 157 141 121 103 94 110 173 195 199 169 165 165 166 162 161 155 164 169 157 149 161 176
254 248 235 236 194 272 159 255 290 292 352 5 147 143 151 147 140 145 145 152 161 170 167 154 154 156 162 158 154 157 161 176 197 193 192 185 172 161 163 162 162 167 167 167 177 172 161 155 172
235 244 238 233 203 273 323 158 269 292 251 255 198 153 151 146 143 144 143 146 154 160 153 153 154 157 161 163 165 166 174 190 186 170 164 169 170 171 165 159 159 165 170 174 174 170 166 166 167
239 4 8 34 68 297 253 173 258 240 219 199 201 167 154 137 135 134 129 126 124 138 147 152 159 167 168 168 168 168 174 175 164 163 165 169 167 171 171 160 161 170 174 179 180 178 176 178 170
44 78 20 350 353 253 244 165 238 241 204 176 174 180 167 145 142 136 129 129 137 143 157 153 164 171 170 169 173 173 174 173 171 171 167 168 164 171 186 171 164 170 179 176 167 163 173 171 167
237 144 163 205 233 271 320 213 250 260 193 165 163 167 159 153 156 151 145 143 151 157 164 162 164 173 172 171 179 168 162 162 167 169 165 174 180 185 175 167 167 170 172 173 162 161 178 168 170
203 204 178 155 202 246 266 266 309 350 178 165 159 153 152 146 156 158 151 145 146 158 169 172 172 173 172 174 171 163 160 158 160 158 156 167 179 175 168 163 167 172 172 169 159 169 189 177 182
157 166 85 107 154 247 266 236 231 226 230 192 149 152 159 149 149 153 152 143 144 158 174 172 176 179 173 168 171 163 163 164 162 152 157 165 172 167 159 162 166 167 170 167 162 171 193 178 191
15 41 95 126 154 164 236 265 230 193 188 160 131 132 156 146 140 136 139 140 133 131 148 173 178 168 163 171 173 162 166 164 161 168 175 169 166 164 164 172 170 171 177 175 174 189 186 188 197
127 125 125 143 234 174 178 257 294 160 150 137 123 115 137 141 135 129 125 116 112 125 146 163 172 164 170 170 164 168 171 165 169 179 178 165 165 169 172 171 169 179 184 180 181 197 198 193 199